Tracking 19563 objects as of 20-Mar-2019
HD Live streaming from Space Station
objects crossing your sky now

COSMOS 2095

Track COSMOS 2095 now!
10-day predictions
COSMOS 2095 is classified as:


NORAD ID: 20740
Int'l Code: 1990-070F
Perigee: 1,391.3 km
Apogee: 1,419.0 km
Inclination: 82.6 °
Period: 113.7 minutes
Semi major axis: 7776 km
RCS: 1.1684 m2 (large)
Launch date: August 8, 1990
Source: Commonwealth of Independent States (former USSR) (CIS)
Launch site: PLESETSK MISSILE AND SPACE COMPLEX (PKMTR)
aabbcc
Your satellite tracking list
Your tracking list is empty




NASA's NSSDC Master Catalog

Two Line Element Set (TLE):
1 20740U 90070F   19078.75052414  .00000014  00000-0  20191-4 0  9994
2 20740  82.5763 169.1819 0017785 294.2214 223.1787 12.66064237322322
Source of the keplerian elements: AFSPC